Regional Weather Roundup
Issued by NWS

Home | Current Version | Previous Version | Graphics & Text | Print | Product List | Glossary On
Versions: 1 2 3 4 5 6 7 8 9 10 11 12 13 14 15 16 17 18 19 20 21 22 23 24 25 26 27 28 29 30 31 32 33 34 35 36 37 38 39 40 41 42 43 44 45 46 47 48 49 50
000
ASUS43 KOAX 021502
RWRNE

WEATHER ROUNDUP FOR NEBRASKA
NATIONAL WEATHER SERVICE OMAHA NE
900 AM CST MON MAR 02 2015

NOTES: SATELLITE DATA IS BEING USED TO AUGMENT CLOUD COVER ABOVE
       12000 FEET.
       "FAIR" INDICATES FEW OR NO CLOUDS BELOW 12,000 FEET WITH NO
       SIGNIFICANT WEATHER AND/OR OBSTRUCTIONS TO VISIBILITY.

  * THESE STATIONS DO NOT REPORT WEATHER SUCH AS RAIN...SNOW OR FOG.

NEZ001>004-019>022-054>056-021600-
NEBRASKA PANHANDLE

CITY           SKY/WX    TMP DP  RH WIND       PRES   REMARKS
SCOTTSBLUFF    PTSUNNY   31  21  66 S13       30.01F WCI  21
ALLIANCE       CLOUDY    29  18  63 S24       30.04S WCI  15
CHADRON        PTSUNNY   33  17  51 S18G26    29.96F WCI  22
KIMBALL        CLOUDY    26  21  79 S17       29.98F WCI  14
SIDNEY         CLOUDY    28  18  66 S21G29    30.04F WCI  15
$$

NEZ057>060-069>072-079>082-021600-
SOUTHWEST NEBRASKA

CITY           SKY/WX    TMP DP  RH WIND       PRES   REMARKS
NORTH PLATTE   CLOUDY    30  18  60 S17       30.20F WCI  18
IMPERIAL         N/A     29  16  58 S22G31    30.16F WCI  15
LEXINGTON      CLOUDY    32  23  70 S16       30.29F WCI  21
MCCOOK         CLOUDY    30  20  66 S10       30.26F WCI  21
$$

NEZ005>010-023>029-035>040-094-021600-
NORTH CENTRAL NEBRASKA

CITY           SKY/WX    TMP DP  RH WIND       PRES   REMARKS
VALENTINE      CLOUDY    29  13  51 S17       30.16F WCI  17
AINSWORTH      CLOUDY    28  13  54 S17       30.20F WCI  15
BROKEN BOW     CLOUDY    30  16  56 S14G23    30.25F WCI  19
ORD            CLOUDY    27  12  53 SE13      30.30F WCI  16
$$

NEZ041-046>049-061>064-073>077-083>087-021600-
SOUTH CENTRAL NEBRASKA

CITY           SKY/WX    TMP DP  RH WIND       PRES   REMARKS
GRAND ISLAND   CLOUDY    28  18  66 S10       30.37F WCI  19
HASTINGS       CLOUDY    30  23  75 S9        30.35F WCI  22
HEBRON         CLOUDY    32  25  76 S9        30.42R WCI  24
KEARNEY *      CLOUDY    30  21  69 S17       30.33F WCI  18
$$

NEZ011>018-030>034-042>045-021600-
NORTHEAST NEBRASKA

CITY           SKY/WX    TMP DP  RH WIND       PRES   REMARKS
NORFOLK        CLOUDY    24  17  74 SE10      30.38F WCI  14
BLAIR          CLOUDY    26  17  68 E6        30.44S WCI  20
COLUMBUS *     CLOUDY    27  12  54 E9        30.41F WCI  17
FREMONT        CLOUDY    28  19  68 E9        30.44F WCI  19
TEKAMAH        CLOUDY    23  17  78 CALM      30.47F
$$

NEZ050>053-065>068-078-088>093-021600-
SOUTHEAST NEBRASKA

CITY           SKY/WX    TMP DP  RH WIND       PRES   REMARKS
LINCOLN        CLOUDY    29  17  61 SE10      30.44F WCI  20
OMAHA EPPLEY   PTSUNNY   25  16  68 SE8       30.48R WCI  16
FALLS CITY     CLOUDY    29  24  82 SE7       30.46F WCI  22
$$

NEZ044-045-051>053-067-021600-
OMAHA AREA

CITY           SKY/WX    TMP DP  RH WIND       PRES   REMARKS
OMAHA EPPLEY   PTSUNNY   25  16  68 SE8       30.48R WCI  16
BLAIR          CLOUDY    26  17  68 E6        30.44S WCI  20
FREMONT        CLOUDY    28  19  68 E9        30.44F WCI  19
OFFUTT AFB     CLOUDY    27  17  65 E8        30.46S WCI  19
$$


USA.gov is the U.S. government's official web portal to all federal, state and local government web resources and services.